Location: Aldenham
(51.6667°N, 0.3500°W)
Time: 12:13:50
(UTC+00:00)

Altair - Pass Details

Date: 17 February 2026
Orbit: 1502 x 1682 km, 47.2° (Epoch: 17 March)

Event Time Altitude Azimuth Distance (km) Brightness Sun altitude
Rises 09:32:48 0° 280° (W) 4,697 9.6 17.4°
Reaches altitude 10° 09:35:52 10° 276° (W) 3,734 9.2 17.7°
Maximum altitude 09:44:59 55° 202° (SSW) 1,864 8.5 18.6°
Drops below altitude 10° 09:54:26 10° 129° (SE) 3,864 11.5 19.5°
Sets 09:57:41 0° 125° (SE) 4,871 11.4 19.8°
